Tracking 29892 objects as of 21-Nov-2024
HD Live streaming from Space Station
objects crossing your sky now

COSMOS 1823 DEB

Track COSMOS 1823 DEB now!
10-day predictions


NORAD ID: 29356
Int'l Code: 1987-020DX
Perigee: 1,462.6 km
Apogee: 1,513.9 km
Inclination: 73.7 °
Period: 115.6 minutes
Semi major axis: 7859 km
RCS: 0.0302 m2 (small)
Launch date: February 20, 1987
Source: Commonwealth of Independent States (former USSR) (CIS)
Launch site: PLESETSK MISSILE AND SPACE COMPLEX (PKMTR)

Note: This is SATELLITE DEBRIS
Your satellite tracking list
Your tracking list is empty




NASA's NSSDC Master Catalog

Two Line Element Set (TLE):
1 29356U 87020DX  24316.12312682  .00000996  00000-0  70070-2 0  9993
2 29356  73.6515 103.5986 0032636 209.9073 266.3990 12.46035125 13385
Source of the keplerian elements: AFSPC